[[[{"header":{"parameterUnit":"kt","parameterCategory":2,"dx":1,"dy":1,"la1":30.253999710083008,"la2":30.299108505249023,"lo1":-89.0895004272461,"lo2":-89.04439544677734,"nx":28,"ny":28,"refTime":"2022-10-09T21:00:00:Z","depth":0,"parameterNumber":1,"parameterNumberName":"U-component_of_WINDS"},"data":[-5.2059,-5.2214,-5.2171,-5.2327,-5.2314,-5.2414,-5.2436,-5.2459,-5.2466,-5.2579,-5.2636,-5.2607,-5.2597,-5.2655,-5.2715,-5.27,-5.2731,-5.2818,-5.2787,-5.2436,-5.2385,-5.2336,-5.2298,-5.2824,-5.2824,-5.3158,-5.3161,-5.3164,-5.1807,-5.1796,-5.1865,-5.1903,-5.1962,-5.1852,-5.1872,-5.193,-5.2022,-5.2031,-5.2085,-5.2181,-5.2251,-5.221,-5.227,-5.2341,-5.2294,-5.2361,-5.2358,-5.2359,-5.1981,-5.1941,-5.2399,-5.2399,-5.2399,-5.2398,-5.2398,-5.2398,-5.1336,-5.143,-5.1427,-5.1502,-5.1508,-5.1534,-5.1616,-5.1578,-5.1645,-5.1703,-5.1635,-5.1738,-5.1739,-5.1789,-5.1794,-5.1874,-5.1792,-5.1852,-5.1868,-5.1886,-5.1913,-5.1444,-5.1881,-5.1879,-5.1878,-5.1877,-5.1875,0,-5.0978,-5.0935,-5.0998,-5.1049,-5.1101,-5.1136,-5.116,-5.1209,-5.1101,-5.1161,-5.1245,-5.1285,-5.1365,-5.1439,-5.1484,-5.1477,-5.1372,-5.1354,-5.1396,-5.1434,-5.1462,-5.1454,-5.0845,-5.1343,-5.1338,-5.1335,-5.1332,-5.133,-5.0505,-5.0618,-5.0593,-5.0643,-5.0645,-5.0728,-5.0768,-5.0664,-5.0711,-5.0725,-5.0814,-5.0885,-5.0937,-5.1078,-5.1033,-5.1093,-5.1043,-5.1239,-5.1052,-5.1082,-5.1052,-5.1049,-5.1061,-5.128,-5.1286,-5.1291,-5.1296,0,-5.0243,-5.0168,-5.0331,-5.0293,-5.0287,-5.0412,-5.038,-5.0469,-5.0421,-5.0538,-5.0559,-5.0486,-5.057,-5.0491,-5.0571,-5.0528,-5.0736,-5.0682,-5.0735,-5.0722,-5.0893,-5.088,-5.1452,-5.1523,-5.0972,-5.0977,-5.0981,0,-4.9812,-4.9965,-4.9846,-4.9944,-5.0111,-5.0001,-5.0169,-5.0145,-5.0143,-5.0234,-5.0098,-5.0186,-5.0071,-5.0148,-5.0085,-5.024,-5.0253,-5.0231,-5.0214,-5.0247,-5.0251,-5.0275,-5.0253,-5.0163,-5.016,-5.0158,-5.0155,0,-4.9414,-4.9528,-4.9686,-4.97,-4.9676,-4.9753,-4.9746,-4.9742,-4.9783,-4.9822,-4.9847,-4.99,-4.9932,-4.9975,-4.9894,-4.9771,-5.008,-4.9893,-5.0058,-5.0061,-5.0135,-5.0133,-5.0653,-5.0152,-5.0151,-5.015,-5.0149,0,-4.9057,-4.9098,-4.9336,-4.9313,-4.9347,-4.9451,-4.9496,-4.9566,-4.9572,-4.9538,-4.9568,-4.947,-4.9595,-4.9416,-4.9589,-4.9451,-4.949,-4.9478,-4.9489,-4.95,-4.9304,-4.9615,-5.0114,-5.0166,-4.9504,-4.9499,-4.9494,0,-4.8624,-4.8844,-4.8752,-4.8981,-4.9072,-4.8914,-4.9026,-4.9035,-4.8999,-4.9071,-4.903,-4.9114,-4.8964,-4.8979,-4.9074,-4.9038,-4.9216,-4.901,-4.9121,-4.9126,-4.913,-4.9586,-4.9683,-5.0012,-4.9424,-4.9431,-4.9437,0,-4.828,-4.8248,-4.8296,-4.8308,-4.8301,-4.8376,-4.8505,-4.8563,-4.8616,-4.8639,-4.8747,-4.8859,-4.8752,-4.8779,-4.8704,-4.8808,-4.9092,-4.8679,-4.8677,-4.876,-4.938,-4.9472,-4.9528,-4.9019,-4.9027,-4.9034,-4.9381,0,-4.7765,-4.7864,-4.7987,-4.8018,-4.8062,-4.82,-4.8116,-4.8174,-4.8097,-4.8056,-4.821,-4.8197,-4.8258,-4.8297,-4.8224,-4.8484,-4.8429,-4.8314,-4.8138,-4.8437,-4.855,-4.8595,-4.7977,-4.7971,-4.7967,-4.7963,0,0,-4.7372,-4.7512,-4.7407,-4.7528,-4.756,-4.7394,-4.755,-4.7561,-4.7589,-4.7616,-4.7515,-4.7675,-4.767,-4.7866,-4.7952,-4.7975,-4.8016,-4.7915,-4.8294,-4.8332,-4.8366,-4.8488,-4.8536,-4.7954,-4.7952,-4.7951,-4.7949,0,-4.7168,-4.7162,-4.7316,-4.7322,-4.7329,-4.7277,-4.7314,-4.7292,-4.7273,-4.7421,-4.7286,-4.7367,-4.7498,-4.7511,-4.7535,-4.7887,-4.7782,-4.7911,-4.813,-4.8249,-4.8292,-4.8331,-4.846,-4.8507,-4.7937,-4.7938,-4.7939,0,-4.6818,-4.68,-4.6864,-4.6926,-4.6929,-4.7026,-4.682,-4.6931,-4.7002,-4.6817,-4.6969,-4.6951,-4.696,-4.7155,-4.7239,-4.7152,-4.7575,-4.7425,-4.7453,-4.7462,-4.7573,-4.7625,-4.7672,-4.7057,-4.7054,-4.7051,0,0,-4.6653,-4.6743,-4.6692,-4.6876,-4.6887,-4.6813,-4.6856,-4.6784,-4.6795,-4.6801,-4.6776,-4.6792,-4.6866,-4.6918,-4.6983,-4.7208,-4.7204,-4.732,-4.7361,-4.7396,-4.7424,-4.7544,-4.7596,-4.7041,-4.7041,-4.704,0,0,-4.6574,-4.6522,-4.6443,-4.6645,-4.666,-4.6624,-4.674,-4.6642,-4.6692,-4.6668,-4.6553,-4.6552,-4.6732,-4.6721,-4.6592,-4.692,-4.6747,-4.6776,-4.6922,-4.6973,-4.7014,-4.7016,-4.6382,0,0,0,0,0,-4.6323,-4.6528,-4.6457,-4.6478,-4.6557,-4.6663,-4.6672,-4.6582,-4.6461,-4.6555,-4.6519,-4.6402,-4.6628,-4.6512,-4.6535,-4.6681,-4.6908,-4.6932,-4.6954,-4.7195,-4.725,-4.7296,0,0,0,0,0,0,-4.633,-4.6357,-4.6451,-4.6424,-4.6441,-4.6654,-4.6431,-4.6412,-4.6449,-4.6424,-4.6412,-4.6401,-4.6327,-4.6493,-4.6516,-4.6656,-4.6374,-4.6918,-4.6938,-4.6956,-4.7214,-4.7258,-4.7297,0,0,0,0,0,-4.6336,-4.6357,-4.6507,-4.642,-4.6435,-4.6364,-4.6422,-4.6405,-4.6432,-4.6376,-4.6361,-4.636,-4.6333,-4.6346,-4.6506,-4.6648,-4.6358,-4.6367,-4.6931,-4.6946,-4.696,-4.7236,0,0,0,0,0,0,-4.634,-4.6342,-4.6507,-4.6508,-4.6336,-4.635,-4.6349,-4.6399,-4.6379,-4.6367,-4.6317,-4.6298,-4.634,-4.6349,-4.636,-4.6651,-4.6345,-4.6354,-4.6359,-4.6943,-4.6955,-4.6966,0,0,0,0,0,0,-4.6329,-4.6344,-4.6508,-4.6406,-4.6395,-4.6338,-4.6337,-4.646,-4.6381,-4.6321,-4.6304,-4.6309,-4.6325,-4.6352,-4.636,-4.6555,-4.6334,-4.6343,-4.6349,-4.6353,-4.6953,-4.6962,0,0,0,0,0,0,-4.6334,-4.6346,-4.6405,-4.6397,-4.6386,-4.6391,-4.6444,-4.653,-4.6293,-4.6325,-4.6269,-4.6258,-4.6332,-4.6337,-4.6361,-4.6554,-4.6555,-4.6335,-4.634,-4.6345,-4.6347,0,0,0,0,0,0,0,-4.6337,-4.6277,-4.6501,-4.6389,-4.6379,-4.6518,-4.6519,-4.6519,-4.6291,-4.6281,-4.6272,-4.6263,-4.6286,-4.6295,-4.6304,-4.6553,0,0,-4.6334,-4.6338,0,0,0,0,0,0,0,0,-4.627,-4.6275,-4.6501,-4.6501,-4.6502,-4.6518,-4.6519,-4.6519,-4.6289,-4.6281,-4.6274,-4.6267,-4.6288,-4.6296,-4.6303,0,0,0,0,0,0,0,0,0,0,0,0,0,0,0,-4.6501,-4.6501,0,-4.6518,-4.6519,-4.6519,-4.6288,-4.6282,-4.6275,-4.627,-4.629,-4.6296,-4.6303,0,0,0,0,0,0,0,0,0,0,0,0,0,0,0,0,0,0,0,0,0,0,0,0,0,0,0,0,0,0,0,0,0,0,0,0,0,0,0,0,0,0,0,0,0,0,0,0,0,0,0,0,0,0,0,0,0,0,0,0,0,0,0,0,0,0,0,0,0]}],[{"header":{"parameterUnit":"kt","parameterCategory":2,"dx":1,"dy":1,"la1":30.253999710083008,"la2":30.299108505249023,"lo1":-89.0895004272461,"lo2":-89.04439544677734,"nx":28,"ny":28,"refTime":"2022-10-09T21:00:00:Z","depth":0,"parameterNumber":2,"parameterNumberName":"V-component_of_WINDS"},"data":[-7.5076,-7.5243,-7.5256,-7.5451,-7.5496,-7.5631,-7.5683,-7.5751,-7.5808,-7.5968,-7.6061,-7.6089,-7.6149,-7.6262,-7.6363,-7.6372,-7.6414,-7.6463,-7.6466,-7.6236,-7.6205,-7.6175,-7.6137,-7.6472,-7.6473,-7.6703,-7.6705,-7.6707,-7.4905,-7.4951,-7.5059,-7.5172,-7.5264,-7.5224,-7.531,-7.5388,-7.5509,-7.558,-7.5673,-7.5814,-7.5926,-7.597,-7.6079,-7.6154,-7.6141,-7.6183,-7.6177,-7.6187,-7.5942,-7.5902,-7.6192,-7.6192,-7.6192,-7.6192,-7.6192,-7.6192,-7.4596,-7.4696,-7.4772,-7.4889,-7.4949,-7.5024,-7.512,-7.5154,-7.5257,-7.5375,-7.5369,-7.5505,-7.5577,-7.5714,-7.5762,-7.5866,-7.5822,-7.5871,-7.5883,-7.5895,-7.5908,-7.5574,-7.5885,-7.5884,-7.5884,-7.5883,-7.5882,0,-7.4375,-7.4379,-7.4484,-7.4592,-7.4678,-7.4762,-7.4841,-7.4901,-7.4912,-7.4997,-7.5121,-7.5193,-7.5336,-7.5452,-7.5556,-7.5596,-7.5562,-7.5559,-7.5593,-7.5599,-7.559,-7.5596,-7.5195,-7.555,-7.5547,-7.5545,-7.5544,-7.5543,-7.4064,-7.4179,-7.4265,-7.4337,-7.4383,-7.4498,-7.4569,-7.457,-7.4645,-7.4741,-7.4827,-7.4944,-7.5037,-7.5231,-7.5266,-7.5371,-7.5356,-7.549,-7.5371,-7.5372,-7.5357,-7.5351,-7.5362,-7.5513,-7.5517,-7.552,-7.5522,0,-7.3888,-7.391,-7.4091,-7.4165,-7.4186,-7.4306,-7.4367,-7.4465,-7.4486,-7.4624,-7.4656,-7.4689,-7.4809,-7.4822,-7.4961,-7.4964,-7.5157,-7.5139,-7.5132,-7.5129,-7.5251,-7.5239,-7.5644,-7.5696,-7.5349,-7.5352,-7.5355,0,-7.3632,-7.3782,-7.3804,-7.3909,-7.4075,-7.4073,-7.4237,-7.4271,-7.4334,-7.4443,-7.4407,-7.4509,-7.451,-7.4614,-7.4618,-7.4778,-7.4804,-7.4816,-7.4816,-7.482,-7.4818,-7.4858,-7.4842,-7.481,-7.4808,-7.4806,-7.4805,0,-7.3354,-7.3542,-7.3711,-7.3757,-7.3851,-7.393,-7.3971,-7.4042,-7.4111,-7.4202,-7.4246,-7.4351,-7.4409,-7.449,-7.4496,-7.4415,-7.4692,-7.4581,-7.4703,-7.4704,-7.4764,-7.476,-7.5115,-7.4802,-7.4801,-7.4801,-7.48,0,-7.3149,-7.3245,-7.3487,-7.3564,-7.3613,-7.3724,-7.3829,-7.3927,-7.4004,-7.4015,-7.4086,-7.4063,-7.4205,-7.4094,-7.4288,-7.4181,-7.424,-7.4264,-7.4273,-7.4286,-7.4162,-7.436,-7.4697,-7.4732,-7.4298,-7.4294,-7.429,0,-7.2825,-7.3076,-7.3077,-7.3307,-7.3425,-7.3377,-7.35,-7.357,-7.3595,-7.3696,-7.3722,-7.3838,-7.3758,-7.3796,-7.3891,-7.3922,-7.4061,-7.3903,-7.4047,-7.4052,-7.4029,-7.4339,-7.4386,-7.4622,-7.4237,-7.4242,-7.4247,0,-7.2577,-7.269,-7.2732,-7.2784,-7.2878,-7.2976,-7.3117,-7.3232,-7.33,-7.3382,-7.35,-7.3662,-7.3609,-7.3672,-7.3664,-7.3762,-7.3967,-7.3691,-7.3693,-7.374,-7.4211,-7.4255,-7.4295,-7.394,-7.3946,-7.3951,-7.4204,0,-7.2263,-7.2391,-7.2504,-7.2621,-7.2699,-7.2844,-7.2861,-7.294,-7.2926,-7.2949,-7.3122,-7.3182,-7.3298,-7.3346,-7.3333,-7.3552,-7.3517,-7.3459,-7.3352,-7.3556,-7.3639,-7.3673,-7.3226,-7.3223,-7.3221,-7.3219,0,0,-7.1947,-7.2132,-7.2129,-7.2267,-7.2333,-7.2281,-7.2435,-7.2492,-7.261,-7.2655,-7.2596,-7.2835,-7.2886,-7.3094,-7.3159,-7.3206,-7.3246,-7.3175,-7.3459,-7.3486,-7.351,-7.36,-7.3635,-7.3214,-7.3213,-7.3212,-7.3211,0,-7.1836,-7.1894,-7.2047,-7.2106,-7.2195,-7.2213,-7.2249,-7.2327,-7.2349,-7.2519,-7.2473,-7.2578,-7.277,-7.283,-7.2886,-7.315,-7.3109,-7.3184,-7.3321,-7.3432,-7.3463,-7.3489,-7.3583,-7.3617,-7.3205,-7.3206,-7.3206,0,-7.1594,-7.1653,-7.1729,-7.1877,-7.1935,-7.2057,-7.1949,-7.2083,-7.2173,-7.2108,-7.2278,-7.2314,-7.2396,-7.2591,-7.2679,-7.2627,-7.2983,-7.2873,-7.289,-7.29,-7.3008,-7.3044,-7.3077,-7.2652,-7.2649,-7.2648,0,0,-7.1496,-7.1616,-7.1679,-7.1855,-7.1894,-7.1922,-7.1989,-7.1982,-7.2058,-7.2089,-7.2134,-7.2208,-7.2319,-7.2392,-7.2497,-7.2709,-7.2725,-7.2805,-7.2831,-7.2852,-7.2873,-7.2987,-7.3023,-7.264,-7.264,-7.264,0,0,-7.1448,-7.1529,-7.1502,-7.1709,-7.1784,-7.1856,-7.1962,-7.193,-7.2026,-7.2011,-7.2004,-7.2023,-7.2206,-7.2242,-7.214,-7.2458,-7.2353,-7.2377,-7.2428,-7.2461,-7.2487,-7.2474,-7.2037,0,0,0,0,0,-7.1344,-7.1519,-7.1493,-7.1531,-7.1718,-7.1871,-7.1894,-7.1893,-7.1818,-7.1902,-7.1934,-7.1886,-7.2185,-7.2095,-7.2131,-7.2245,-7.2544,-7.2561,-7.2577,-7.2692,-7.2727,-7.2756,0,0,0,0,0,0,-7.1358,-7.1404,-7.1489,-7.1569,-7.1611,-7.1864,-7.1737,-7.1742,-7.1809,-7.1798,-7.1881,-7.1889,-7.1889,-7.2076,-7.2109,-7.2217,-7.2026,-7.255,-7.2565,-7.2578,-7.2704,-7.2732,-7.2757,0,0,0,0,0,-7.137,-7.1407,-7.1707,-7.1566,-7.1603,-7.1643,-7.1731,-7.1733,-7.1785,-7.1836,-7.1842,-7.1779,-7.1893,-7.192,-7.2096,-7.2202,-7.2004,-7.2016,-7.256,-7.2571,-7.2581,-7.2718,0,0,0,0,0,0,-7.1379,-7.141,-7.1715,-7.1726,-7.15,-7.1629,-7.1649,-7.1726,-7.1819,-7.1827,-7.1732,-7.1722,-7.1897,-7.1917,-7.1938,-7.2198,-7.1986,-7.1998,-7.2006,-7.2568,-7.2577,-7.2585,0,0,0,0,0,0,-7.139,-7.1419,-7.172,-7.1637,-7.1639,-7.1616,-7.1634,-7.1783,-7.1821,-7.1709,-7.1704,-7.1726,-7.1864,-7.1916,-7.1932,-7.2165,-7.1971,-7.1983,-7.1991,-7.1997,-7.2576,-7.2583,0,0,0,0,0,0,-7.1402,-7.1428,-7.1634,-7.1636,-7.1636,-7.1759,-7.1747,-7.1938,-7.1752,-7.1706,-7.1735,-7.1727,-7.1865,-7.1881,-7.1929,-7.2155,-7.2162,-7.1972,-7.198,-7.1986,-7.1989,0,0,0,0,0,0,0,-7.1412,-7.1243,-7.165,-7.1634,-7.1634,-7.1827,-7.183,-7.1833,-7.175,-7.1743,-7.1736,-7.173,-7.1904,-7.1917,-7.193,-7.2147,0,0,-7.1971,-7.1976,0,0,0,0,0,0,0,0,-7.1232,-7.1241,-7.165,-7.1653,-7.1655,-7.1827,-7.183,-7.1832,-7.1749,-7.1743,-7.1738,-7.1733,-7.1908,-7.1918,-7.1929,0,0,0,0,0,0,0,0,0,0,0,0,0,0,0,-7.1651,-7.1652,0,-7.1828,-7.183,-7.1832,-7.1748,-7.1743,-7.1739,-7.1735,-7.191,-7.1919,-7.1928,0,0,0,0,0,0,0,0,0,0,0,0,0,0,0,0,0,0,0,0,0,0,0,0,0,0,0,0,0,0,0,0,0,0,0,0,0,0,0,0,0,0,0,0,0,0,0,0,0,0,0,0,0,0,0,0,0,0,0,0,0,0,0,0,0,0,0,0,0]}]]]